Lid_Strength_Index
11 13 16 16 16 15 16 17 17 16 15 15 17 16 14 13 16 16 16 16 16 16 14 13 12 12 12 12 12 12 12 12 12 13 13 13 13 13 13 12 12 12 12 13
14 16 15 15 15 15 15 17 17 16 15 16 17 16 15 15 17 17 16 16 16 16 14 13 13 13 13 12 12 12 12 12 12 12 12 13 13 13 13 12 12 12 12 13
17 17 15 15 16 16 16 17 18 17 16 17 17 17 16 16 17 16 16 16 16 16 15 14 13 13 13 13 13 12 12 12 12 12 12 13 13 13 13 13 13 12 12 13
16 16 16 16 16 16 17 16 16 16 18 21 17 21 17 17 17 17 17 17 16 16 15 14 14 13 13 13 13 12 11 11 11 12 12 13 13 14 14 14 13 13 13 13
17 16 16 16 16 15 16 15 16 17 21 22 19 21 17 17 17 18 17 17 17 16 15 14 14 13 13 13 13 12 12 12 12 12 12 13 14 14 14 14 14 14 14 14
17 16 16 16 15 15 15 15 17 18 20 23 24 21 18 17 16 18 18 17 16 16 16 14 14 13 14 13 13 12 12 13 13 13 13 13 14 14 15 15 15 15 15 15
15 16 16 15 16 15 16 18 23 23 24 22 21 22 17 17 18 17 17 17 17 16 16 15 14 14 14 13 13 13 13 13 13 13 14 14 14 15 15 15 15 15 15 16
20 19 16 16 16 17 17 19 22 26 24 22 19 22 18 18 18 17 15 15 14 15 16 15 15 14 13 13 13 12 13 13 13 13 14 14 14 15 15 15 15 15 15 15
19 17 17 16 16 16 17 19 18 23 21 26 20 19 17 19 18 17 15 14 15 15 15 15 14 14 13 13 13 13 13 13 13 13 14 14 13 13 14 14 14 14 14 14
17 19 17 17 16 16 17 17 20 23 26 25 22 23 19 21 18 17 17 17 16 15 15 15 14 13 13 12 13 13 13 13 13 13 13 13 13 13 13 14 14 14 14 14
19 19 19 18 18 20 19 23 21 20 21 24 26 22 19 19 18 17 18 17 17 17 16 15 15 14 13 14 13 13 14 14 13 13 13 13 13 13 13 14 13 13 13 13
18 20 22 19 22 22 20 21 21 21 24 19 20 21 17 20 20 21 20 17 16 16 16 16 15 14 14 14 13 14 14 14 14 13 13 13 13 14 14 14 14 13 13 13
18 20 23 20 21 20 23 24 25 20 21 20 22 21 15 15 17 19 19 17 17 16 16 16 15 15 14 13 12 13 13 13 12 12 13 14 14 14 14 14 13 12 13 13
13 19 20 20 20 20 22 23 20 21 20 22 19 18 17 15 17 16 16 15 16 17 16 15 14 14 13 13 13 13 13 12 12 13 14 14 15 14 14 14 14 13 12 13
16 21 18 18 17 19 19 22 19 19 18 18 17 19 19 17 14 14 14 15 15 15 14 14 14 14 13 13 13 13 13 13 13 14 14 14 14 14 14 14 13 13 13 12
17 20 21 23 17 18 19 18 20 17 16 16 15 15 19 16 13 14 14 14 14 13 13 13 14 13 13 13 13 13 13 13 13 14 14 14 14 14 14 13 13 13 13 13
16 16 17 20 17 16 20 18 16 18 22 19 16 15 14 14 13 13 12 12 13 13 13 14 14 13 14 15 14 15 14 14 15 15 14 14 13 14 14 13 13 13 13 13
14 15 15 18 18 25 20 22 23 22 20 17 15 15 14 13 12 12 13 13 13 14 14 16 16 16 16 16 15 14 14 17 15 15 15 14 14 14 13 13 13 14 13 14
12 14 16 18 21 18 18 17 17 21 19 18 18 14 13 13 13 13 11 13 13 14 13 11 11 12 20 17 17 16 15 15 15 15 14 14 14 14 14 14 14 14 14 14
14 13 15 20 23 25 20 16 13 13 19 13 13 14 15 14 17 17 11 10 10 10 10 10 11 14 13 14 16 16 16 16 16 14 14 13 13 13 14 14 14 14 14 13
21 23 17 17 20 19 14 12 12 19 18 13 15 17 19 14 16 16 11 12 12 11 12 13 12 13 16 19 19 16 16 17 14 13 13 13 13 13 13 14 14 14 14 13
22 23 23 21 25 24 13 13 16 15 13 13 14 17 18 13 13 14 13 18 18 13 18 22 21 22 24 25 22 20 18 15 14 14 14 14 13 13 12 13 13 13 14 14
22 18 20 17 17 13 11 12 12 11 13 13 14 12 10 11 11 11 13 17 19 20 23 27 25 26 23 25 23 21 17 15 15 14 14 14 13 13 12 13 13 13 14 15
17 16 17 16 15 14 12 9 10 10 11 10 10 11 9 11 11 12 12 15 19 22 22 26 26 26 25 26 26 23 19 15 15 15 15 14 14 13 13 12 13 13 14 14
16 15 15 16 15 14 10 10 9 9 10 10 9 9 10 12 11 14 15 17 21 23 25 28 27 28 25 27 24 24 20 17 17 16 16 15 14 15 14 13 13 13 12 12
16 16 17 17 13 14 13 9 8 9 10 9 11 12 11 13 13 14 15 16 21 22 25 26 27 29 24 28 24 23 24 19 18 17 15 16 14 15 14 14 13 10 9 8